Stations météo

réclame
Mon MeteoGroup
Le Luc, France (7675): Température de l'air & dewpoint: 19.01.2020 04:00:00 - 25.01.2020 04:00:00 (CET)Le Luc, France (7675): Température de l'air 5cm: 19.01.2020 04:00:00 - 25.01.2020 04:00:00 (CET)Le Luc, France (7675): Vitesse du vent & gusts: 19.01.2020 04:00:00 - 25.01.2020 04:00:00 (CET)Le Luc, France (7675): Direction du vent: 19.01.2020 04:00:00 - 25.01.2020 04:00:00 (CET)Le Luc, France (7675): reduced air pressure: 19.01.2020 04:00:00 - 25.01.2020 04:00:00 (CET)Le Luc, France (7675): visibility: 19.01.2020 04:00:00 - 25.01.2020 04:00:00 (CET)Le Luc, France (7675): Ensoleillement: 19.01.2020 04:00:00 - 25.01.2020 04:00:00 (CET)Le Luc, France (7675): Quantités de précipitations: 19.01.2020 04:00:00 - 25.01.2020 04:00:00 (CET)
Date & Time tt [°C] td [°C] tt 5cm [°C] ff [km/h] ff [knt] fx [km/h] fx [knt] dd ppp [hPa] vv [km] sd [min] rr [mm]
25.01.2020 04:00:00 9,2 8,1 8,2 0 0 4 2 N 1022,0 14 0 0,0
25.01.2020 03:00:00 9,4 8,2 8,6 0 0 3 1 N 1022,3 13 0 0,0
25.01.2020 02:00:00 9,8 8,1 9,0 0 0 5 3 N 1022,2 16 0 0,0
25.01.2020 01:00:00 9,6 8,4 8,9 3 2 6 3 NNW 1022,4 13 0 0,0
25.01.2020 00:00:00 9,9 8,2 9,1 0 0 6 3 N 1022,5 15 0 0,0
24.01.2020 23:00:00 10,1 8,2 9,4 3 2 6 3 S 1022,6 16 0 0,0
24.01.2020 22:00:00 10,4 8,5 9,2 3 2 6 3 W 1022,3 15 0 0,0
24.01.2020 21:00:00 10,0 8,3 9,0 5 3 7 4 NNW 1022,1 14 0 0,0
24.01.2020 20:00:00 10,9 8,3 9,4 0 0 8 5 N 1022,1 18 0 0,0
24.01.2020 19:00:00 11,1 8,3 9,3 5 3 11 6 ENE 1021,9 22 0 0,0
24.01.2020 18:00:00 11,5 8,2 10,4 7 4 16 9 ENE 1021,4 20 0 0,0
24.01.2020 17:00:00 12,1 8,0 11,6 10 6 26 14 ENE 1021,5 39 0 0,0
24.01.2020 16:00:00 12,5 8,0 12,5 13 7 26 14 ENE 1021,6 37 0 0,0
24.01.2020 15:00:00 13,2 7,8 13,4 19 10 31 17 ENE 1022,0 33 0 0,0
24.01.2020 14:00:00 13,5 7,0 13,5 13 7 25 14 ENE 1022,6 37 0 0,0
24.01.2020 13:00:00 13,4 6,0 13,3 16 9 24 13 E 1023,4 45 0 0,0
24.01.2020 12:00:00 12,9 4,3 12,7 13 7 21 11 ENE 1024,1 49 0 0,0
24.01.2020 11:00:00 12,2 4,7 11,6 6 4 11 6 NE 1024,4 46 0 0,0
24.01.2020 10:00:00 11,1 3,6 7,6 8 4 22 12 NNE 1024,3 47 0 0,0
24.01.2020 09:00:00 7,8 3,5 4,3 4 2 11 6 NE 1024,4 44 0 0,0
24.01.2020 08:00:00 5,7 3,9 3,1 4 2 9 5 NE 1024,3 20 0 0,0
24.01.2020 07:00:00 4,9 4,2 3,0 2 1 8 4 WNW 1024,3 14 0 0,0
24.01.2020 06:00:00 5,1 4,2 3,1 0 0 5 3 N 1024,5 12 0 0,0
24.01.2020 05:00:00 6,0 5,3 4,3 3 2 5 3 WSW 1024,8 14 0 0,0
24.01.2020 04:00:00 6,0 5,3 4,2 2 1 5 3 SE 1025,4 11 0 0,0
24.01.2020 03:00:00 6,6 5,5 5,1 0 0 4 2 N 1025,8 13 0 0,0
24.01.2020 02:00:00 7,1 6,0 5,7 3 1 5 3 E 1026,2 14 0 0,0
24.01.2020 01:00:00 7,3 5,8 5,7 0 0 7 4 N 1026,6 18 0 0,0
24.01.2020 00:00:00 8,4 6,7 6,8 4 2 6 3 SSW 1026,6 20 0 0,0
23.01.2020 23:00:00 8,8 6,8 7,3 2 1 15 8 WSW 1026,6 20 0 0,0
23.01.2020 22:00:00 10,0 7,4 6,8 4 2 9 5 NE 1026,7 19 0 0,0
23.01.2020 21:00:00 9,8 7,6 7,3 6 3 10 6 NE 1027,0 23 0 0,0
23.01.2020 20:00:00 10,7 7,9 8,1 3 1 14 7 NNE 1026,9 23 0 0,0
23.01.2020 19:00:00 12,0 8,5 10,4 5 3 20 11 ENE 1026,7 27 0 0,0
23.01.2020 18:00:00 12,6 8,9 11,7 13 7 27 15 E 1026,4 29 0 0,0
23.01.2020 17:00:00 13,1 9,3 12,5 16 9 38 21 E 1026,0 27 6 0,0
23.01.2020 16:00:00 14,0 9,6 13,5 25 13 39 21 E 1026,0 20 17 0,0
23.01.2020 15:00:00 14,0 9,4 13,8 25 13 51 28 E 1025,8 32 3 0,0
23.01.2020 14:00:00 14,1 9,1 13,9 28 15 51 27 E 1025,9 30 0 0,0
23.01.2020 13:00:00 14,1 8,9 13,9 29 16 56 30 E 1026,6 30 0 0,0
23.01.2020 12:00:00 13,9 8,9 13,7 31 17 50 27 E 1027,1 27 0 0,0
23.01.2020 11:00:00 13,7 9,3 13,0 25 13 46 25 E 1027,6 29 3 0,0
23.01.2020 10:00:00 13,3 8,8 12,7 19 11 40 22 E 1027,3 33 0 0,0
23.01.2020 09:00:00 13,0 7,9 12,0 16 9 31 17 E 1026,9 42 0 0,0
23.01.2020 08:00:00 12,9 7,8 11,8 20 11 36 19 E 1026,8 43 0 0,0
23.01.2020 07:00:00 12,7 8,0 11,8 9 5 29 15 NE 1026,6 32 0 0,0
23.01.2020 06:00:00 13,2 8,1 12,3 15 8 32 17 E 1026,8 34 0 0,0
23.01.2020 05:00:00 13,0 8,1 12,1 11 6 37 20 E 1026,8 29 0 0,0
23.01.2020 04:00:00 13,1 8,2 11,8 16 9 34 19 ENE 1026,5 32 0 0,0
23.01.2020 03:00:00 12,7 8,0 11,4 13 7 37 20 E 1027,0 29 0 0,0
23.01.2020 02:00:00 12,9 8,0 11,7 18 10 40 22 E 1026,8 33 0 0,0
23.01.2020 01:00:00 13,0 7,9 11,5 21 11 42 23 E 1026,9 29 0 0,0
23.01.2020 00:00:00 12,7 7,6 11,0 14 8 29 15 E 1027,3 31 0 0,0
22.01.2020 23:00:00 12,4 7,5 11,1 14 8 31 17 E 1027,4 31 0 0,0
22.01.2020 22:00:00 13,0 7,4 11,6 18 10 33 18 E 1027,2 37 0 0,0
22.01.2020 21:00:00 12,7 7,6 10,9 18 10 29 16 E 1027,3 33 0 0,0
22.01.2020 20:00:00 12,3 7,4 10,4 13 7 23 12 E 1027,7 32 0 0,0
22.01.2020 19:00:00 12,4 7,3 10,5 11 6 29 16 E 1028,0 32 0 0,0
22.01.2020 18:00:00 12,8 6,8 10,9 11 6 29 15 E 1028,1 40 7 0,0
22.01.2020 17:00:00 14,1 6,7 13,3 17 9 33 18 E 1027,9 39 42 0,0
22.01.2020 16:00:00 15,1 6,4 15,7 24 13 49 27 E 1028,3 39 60 0,0
22.01.2020 15:00:00 15,6 6,0 15,6 26 14 49 26 ENE 1028,4 37 50 0,0
22.01.2020 14:00:00 15,5 5,4 15,5 31 17 51 28 ENE 1029,0 41 37 0,0
22.01.2020 13:00:00 15,1 6,1 15,1 19 11 49 26 E 1030,0 33 20 0,0
22.01.2020 12:00:00 14,5 5,3 14,5 27 15 50 27 E 1030,9 36 10 0,0
22.01.2020 11:00:00 14,1 4,9 12,7 29 16 53 28 E 1031,1 40 1 0,0
22.01.2020 10:00:00 12,9 5,3 11,2 17 9 32 17 E 1031,1 41 0 0,0
22.01.2020 09:00:00 12,5 4,5 8,2 16 9 29 15 ENE 1031,1 45 0 0,0
22.01.2020 08:00:00 10,3 6,1 7,4 6 3 16 9 NE 1030,9 38 0 0,0
22.01.2020 07:00:00 9,2 6,5 7,4 4 2 12 7 ENE 1031,1 27 0 0,2
22.01.2020 06:00:00 9,8 6,1 7,4 5 3 18 10 NE 1031,4 16 0 0,4
22.01.2020 05:00:00 10,7 4,4 9,0 9 5 18 10 NE 1031,6 44 0 0,0
22.01.2020 04:00:00 10,8 3,8 9,4 4 2 15 8 E 1031,9 48 0 0,0
22.01.2020 03:00:00 10,4 3,2 7,6 7 4 14 7 NNE 1032,4 49 0 0,0
22.01.2020 02:00:00 9,7 2,3 7,7 8 5 22 12 NE 1032,9 49 0 0,0
22.01.2020 01:00:00 11,3 2,3 8,7 12 6 20 11 ENE 1033,4 50 0 0,0
22.01.2020 00:00:00 11,0 1,5 8,8 13 7 36 19 NE 1033,6 50 0 0,0
21.01.2020 23:00:00 12,3 1,3 10,6 19 11 36 19 E 1033,8 50 0 0,0
21.01.2020 22:00:00 12,6 0,7 10,7 21 11 41 22 E 1033,8 50 0 0,0
21.01.2020 21:00:00 12,4 1,1 11,0 18 10 41 22 E 1033,8 50 0 0,0
21.01.2020 20:00:00 12,6 1,0 10,8 22 12 40 22 E 1033,6 50 0 0,0
21.01.2020 19:00:00 12,2 1,2 10,9 16 9 37 20 E 1033,6 50 0 0,0
21.01.2020 18:00:00 12,4 -0,2 11,0 21 12 45 24 E 1033,3 50 0 0,0
21.01.2020 17:00:00 12,7 -0,2 11,9 20 11 39 21 ENE 1033,2 50 0 0,0
21.01.2020 16:00:00 13,0 1,6 12,9 19 10 41 22 E 1033,5 20 0 0,0
21.01.2020 15:00:00 13,0 1,6 13,3 24 13 36 19 E 1033,9 20 9 0,0
21.01.2020 14:00:00 13,8 0,8 14,6 21 11 44 24 E 1034,5 20 50 0,0
21.01.2020 13:00:00 13,3 1,0 13,6 22 12 48 26 E 1035,2 20 16 0,0
21.01.2020 12:00:00 13,4 0,4 13,1 23 13 39 21 E 1035,7 20 38 0,0
21.01.2020 11:00:00 12,6 -0,3 12,6 23 12 39 21 E 1036,0 20 43 0,0
21.01.2020 10:00:00 12,1 -0,4 11,0 22 12 46 25 E 1035,8 20 43 0,0
21.01.2020 09:00:00 11,6 -0,9 9,9 25 14 50 27 E 1035,3 20 0 0,0
21.01.2020 08:00:00 11,1 -0,4 9,9 23 13 50 27 E 1035,1 20 0 0,0
21.01.2020 07:00:00 11,0 -0,2 9,0 28 15 54 29 E 1035,0 20 0 0,0
21.01.2020 06:00:00 10,4 0,7 7,6 19 10 72 39 E 1035,0 20 0 0,0
21.01.2020 05:00:00 10,5 0,5 8,4 32 18 66 36 E 1035,2 20 0 0,0
21.01.2020 04:00:00 9,5 2,1 6,9 14 8 45 25 E 1035,6 20 0 0,0
21.01.2020 03:00:00 9,0 2,8 6,8 21 12 35 19 E 1035,9 20 0 0,0
21.01.2020 02:00:00 8,9 2,7 6,2 16 9 35 19 ENE 1036,0 20 0 0,0
21.01.2020 01:00:00 8,4 2,8 5,8 18 10 53 29 E 1036,3 20 0 0,2
21.01.2020 00:00:00 10,4 -1,3 8,9 30 16 53 29 E 1036,3 20 0 0,0
20.01.2020 23:00:00 10,1 -1,6 8,5 29 16 64 35 E 1035,9 20 0 0,0
20.01.2020 22:00:00 10,0 -1,4 8,4 31 17 74 40 E 1036,2 20 0 0,0
20.01.2020 21:00:00 10,9 -3,2 10,0 34 18 56 31 E 1035,2 20 0 0,0
20.01.2020 20:00:00 10,9 -3,6 9,9 34 18 58 31 E 1034,8 20 0 0,0
20.01.2020 19:00:00 10,9 -2,2 9,7 27 14 50 27 E 1034,3 20 0 0,0
20.01.2020 18:00:00 10,6 -2,1 9,5 21 11 38 21 E 1033,4 20 0 0,0
20.01.2020 17:00:00 10,6 -2,5 9,7 21 12 45 24 E 1033,0 20 0 0,0
20.01.2020 16:00:00 11,3 -2,2 10,7 26 14 45 24 E 1032,9 20 0 0,0
20.01.2020 15:00:00 11,5 -1,7 11,3 31 17 58 31 E 1032,9 20 0 0,0
20.01.2020 14:00:00 11,5 -2,7 11,4 30 16 61 33 E 1032,8 20 0 0,0
20.01.2020 13:00:00 11,8 -2,8 11,7 32 17 50 27 E 1032,8 20 0 0,0
20.01.2020 12:00:00 11,8 -5,2 10,6 27 15 48 26 E 1033,0 20 0 0,0
20.01.2020 11:00:00 10,9 -4,4 9,7 18 10 38 20 ENE 1032,9 20 0 0,0
20.01.2020 10:00:00 10,1 -2,9 8,2 15 8 33 18 ENE 1032,0 20 0 0,0
20.01.2020 09:00:00 9,7 -2,9 7,0 16 9 44 24 ENE 1031,8 20 0 0,0
20.01.2020 08:00:00 8,2 -1,6 5,2 11 6 29 16 NE 1031,5 20 0 0,0
20.01.2020 07:00:00 6,7 -0,8 4,1 10 5 21 11 ENE 1030,8 20 0 0,0
20.01.2020 06:00:00 4,5 0,6 3,0 4 2 8 4 E 1030,5 20 0 0,0
20.01.2020 05:00:00 3,7 1,4 2,3 4 2 17 9 ESE 1030,3 20 0 0,0
20.01.2020 04:00:00 2,5 1,6 2,0 3 1 9 5 ESE 1030,3 20 0 0,0
20.01.2020 03:00:00 2,3 1,7 1,6 3 1 7 4 ESE 1030,3 19 0 0,0
20.01.2020 02:00:00 2,3 1,6 1,5 0 0 5 3 N 1029,9 20 0 0,0
20.01.2020 01:00:00 2,1 1,4 0,9 0 0 5 3 N 1029,8 20 0 0,0
20.01.2020 00:00:00 2,2 1,3 1,3 0 0 5 3 N 1029,4 20 0 0,0
19.01.2020 23:00:00 1,9 1,3 1,0 4 2 5 3 ESE 1029,2 20 0 0,0
19.01.2020 22:00:00 2,0 1,0 0,9 4 2 5 3 W 1028,7 20 0 0,0
19.01.2020 21:00:00 1,7 1,0 0,3 0 0 7 4 N 1028,1 20 0 0,0
19.01.2020 20:00:00 2,3 1,6 -0,2 0 0 8 4 N 1027,5 20 0 0,0
19.01.2020 19:00:00 3,3 2,4 1,1 3 2 9 5 S 1026,9 20 0 0,0
19.01.2020 18:00:00 5,5 4,1 2,5 0 0 10 5 N 1026,3 20 0 0,0
19.01.2020 17:00:00 7,8 4,7 6,6 2 1 5 3 SSW 1025,5 20 17 0,0
19.01.2020 16:00:00 8,7 4,5 9,7 3 1 7 4 SE 1025,0 20 22 0,0
19.01.2020 15:00:00 7,8 4,0 9,5 3 2 5 3 SE 1024,8 20 0 0,0
19.01.2020 14:00:00 7,1 3,7 8,2 0 0 4 2 N 1024,6 20 0 0,0
19.01.2020 13:00:00 5,5 3,0 6,6 0 0 5 3 N 1024,8 20 0 0,0
19.01.2020 12:00:00 4,3 1,7 4,6 0 0 4 2 N 1025,3 20 3 0,0
19.01.2020 11:00:00 2,2 0,9 1,5 2 1 6 3 NNW 1025,3 19 0 0,0
19.01.2020 10:00:00 0,3 -0,4 -1,3 0 0 3 2 N 1024,9 19 0 0,0
19.01.2020 09:00:00 -1,3 -2,0 -2,9 3 1 5 3 WSW 1024,4 20 0 0,0
19.01.2020 08:00:00 -1,9 -2,6 -3,9 2 1 3 2 SW 1024,0 20 0 0,0
19.01.2020 07:00:00 -2,1 -2,9 -4,0 0 0 4 2 N 1023,8 20 0 0,0
19.01.2020 06:00:00 -1,7 -2,4 -3,6 2 1 5 3 WNW 1023,5 18 0 0,0
19.01.2020 05:00:00 -1,5 -2,2 -3,4 0 0 3 2 N 1023,3 20 0 0,0
19.01.2020 04:00:00 -1,7 -2,4 -3,3 0 0 4 2 N 1023,5 20 0 0,0

tt = Température de l'air
td = dewpoint
tt 5cm = Température de l'air 5cm
ff = Vitesse du vent
fx = gusts
dd = Direction du vent
ppp = reduced air pressure
vv = visibility
sd = Ensoleillement
rr = Quantités de précipitations

stations d'obs. à proximité